DW6471 Weather Reports


Display with metric or nautical units.
time (UTC)temp
F
wind
direction
speed
MPH
gust
MPH
rain 1hr
in
rain 24hr
in
rain mn
in
humidity
%
barometer
mb
20260507123619 77 198 3.0 10.0 0.00 0.45 0.00 91 1012.4
20260507123119 0 202 3.0 2.0 0.00 0.45 0.00 1012.4
20260507122614 0 0.0 0.0 0.00 0.45 0.00 1012.4
20260507122111 0 0.0 0.0 0.00 0.45 0.00 1012.3
20260507121612 0 0.0 0.0 0.00 0.45 0.00 1012.3
20260507121112 0 0.0 0.0 0.00 0.45 0.00 1012.2
20260507120612 0 0.0 0.0 0.00 0.45 0.00 1012.0
20260507120109 0 0.0 0.0 0.00 0.45 0.00 1011.9
20260507115604 0 0.0 0.0 0.00 0.45 0.00 1011.9
20260507115013 0 0.0 0.0 0.00 0.45 0.00 1012.0
20260507114511 0 0.0 0.0 0.00 0.45 0.00 1012.2
20260507114240 0 0.0 0.0 0.00 0.45 0.00 1012.0
20260507113457 0 0.0 0.0 0.00 0.45 0.00 1012.0
20260507112918 0 0.0 0.0 0.00 0.45 0.00 1012.0
20260507112418 0 0.0 0.0 0.00 0.45 0.00 1012.0
20260507111914 0 0.0 0.0 0.00 0.45 0.00 1011.8
20260507111644 0 0.0 0.0 0.00 0.45 0.00 1011.6
20260507110902 0 0.0 0.0 0.00 0.45 0.00 1011.6
20260507110316 0 0.0 0.0 0.00 0.45 0.00 1011.7
20260507110048 0 0.0 0.0 0.00 0.45 0.00 1011.7
20260507105316 0 0.0 0.0 0.00 0.45 0.00 1011.4
20260507104813 0 0.0 0.0 0.00 0.45 0.00 1011.2
20260507104542 0 0.0 0.0 0.00 0.45 0.00 1011.2
20260507103715 0 0.0 0.0 0.00 0.45 0.00 1011.1
20260507103216 0 0.0 0.0 0.00 0.45 0.00 1011.1
20260507102716 0 0.0 0.0 0.00 0.45 0.00 1011.1
20260507102215 0 0.0 0.0 0.00 0.45 0.00 1011.2
20260507101707 0 0.0 12.0 0.00 0.45 0.00 1011.0
20260507101204 77 219 3.0 12.0 0.00 0.45 0.00 92 1011.1
20260507100632 77 219 3.0 12.0 0.00 0.45 0.00 92 1011.1
20260507100132 77 219 3.0 12.0 0.00 0.45 0.00 92 1011.1
20260507095902 76 253 3.0 12.0 0.00 0.45 0.00 93 1011.1
20260507095132 76 211 3.0 12.0 0.00 0.45 0.00 93 1011.2
20260507094632 76 243 3.0 11.0 0.00 0.45 0.00 93 1011.1
20260507094131 76 200 3.0 11.0 0.00 0.45 0.00 93 1011.2
20260507093632 76 276 4.0 11.0 0.00 0.45 0.00 93 1011.2
20260507093403 76 187 4.0 11.0 0.00 0.45 0.00 93 1011.3
20260507092632 76 282 4.0 12.0 0.00 0.45 0.00 93 1011.2
20260507092131 76 193 4.0 12.0 0.00 0.45 0.00 93 1011.2
20260507091631 76 261 4.0 11.0 0.00 0.45 0.00 93 1011.1
20260507091132 76 226 3.0 10.0 0.00 0.45 0.00 93 1011.0
20260507090631 76 233 3.0 10.0 0.00 0.45 0.00 93 1011.0
20260507090132 76 274 3.0 12.0 0.00 0.45 0.00 93 1011.0
20260507085631 76 174 3.0 12.0 0.00 0.45 0.00 93 1010.9
20260507085132 76 193 3.0 8.0 0.00 0.45 0.00 93 1011.1
20260507084631 76 279 4.0 8.0 0.00 0.45 0.00 93 1011.2
20260507084402 77 210 3.0 8.0 0.00 0.45 0.00 93 1011.1
20260507083902 77 281 2.0 7.0 0.00 0.45 0.00 93 1011.2
20260507083403 77 202 2.0 11.0 0.00 0.45 0.00 93 1011.2
20260507082631 77 283 3.0 12.0 0.00 0.45 0.00 93 1011.4
20260507082132 77 211 3.0 12.0 0.00 0.45 0.00 93 1011.4
20260507081631 77 191 3.0 10.0 0.00 0.45 0.00 93 1011.5
20260507081132 77 230 4.0 11.0 0.00 0.45 0.00 93 1011.4
20260507080631 77 238 4.0 11.0 0.00 0.45 0.00 93 1011.3
20260507080132 77 274 4.0 13.0 0.00 0.45 0.00 92 1011.2
20260507075632 77 226 4.0 13.0 0.00 0.45 0.00 92 1011.2
20260507075131 77 221 3.0 12.0 0.00 0.45 0.00 92 1011.2
20260507074632 77 67 3.0 12.0 0.00 0.45 0.00 92 1011.3
20260507074133 77 326 3.0 10.0 0.00 0.45 0.00 92 1011.4
20260507073632 77 210 3.0 10.0 0.00 0.45 0.00 92 1011.4
20260507073132 77 253 3.0 9.0 0.00 0.45 0.00 92 1011.5
20260507072903 77 200 3.0 8.0 0.00 0.45 0.00 92 1011.6
20260507072132 77 214 3.0 7.0 0.00 0.45 0.00 92 1011.6
20260507071903 77 190 3.0 7.0 0.00 0.45 0.00 92 1011.6
20260507071132 77 202 2.0 7.0 0.00 0.45 0.00 92 1011.8
20260507070631 77 48 2.0 8.0 0.00 0.45 0.00 92 1011.8
20260507070132 77 184 2.0 8.0 0.00 0.45 0.00 92 1011.8
20260507065631 77 207 1.0 8.0 0.00 0.45 0.00 92 1011.8
20260507065132 77 144 2.0 8.0 0.00 0.45 0.00 92 1011.5
20260507064903 77 153 2.0 7.0 0.00 0.45 0.00 92 1011.7
20260507064132 77 174 2.0 8.0 0.00 0.45 0.00 92 1011.7
20260507063632 77 98 3.0 8.0 0.00 0.45 0.00 92 1011.7
20260507063131 77 151 3.0 9.0 0.00 0.45 0.00 92 1011.8
20260507062903 77 179 3.0 9.0 0.00 0.45 0.00 92 1011.9
20260507062132 77 229 3.0 9.0 0.00 0.45 0.00 92 1011.8
20260507061903 77 130 3.0 10.0 0.00 0.45 0.00 92 1011.6
20260507061132 77 250 3.0 10.0 0.00 0.45 0.00 92 1011.7
20260507060632 77 194 3.0 10.0 0.00 0.45 0.00 92 1011.8
20260507060129 77 225 3.0 10.0 0.00 0.45 0.00 92 1011.8
20260507055630 77 211 3.0 9.0 0.00 0.45 0.00 92 1011.9
20260507055125 77 206 2.0 9.0 0.00 0.45 0.00 92 1011.7
20260507054623 77 169 2.0 7.0 0.00 0.45 0.00 92 1011.9
20260507054123 77 156 2.0 6.0 0.00 0.45 0.00 92 1012.0
20260507053621 77 212 2.0 12.0 0.00 0.45 0.00 92 1012.0
20260507053122 77 223 2.0 12.0 0.00 0.45 0.00 92 1012.2
20260507052621 77 292 2.0 6.0 0.00 0.45 0.00 92 1012.3
20260507052120 77 269 3.0 6.0 0.00 0.45 0.00 92 1012.7
20260507051619 77 239 2.0 6.0 0.00 0.45 0.00 92 1012.5
20260507051118 77 219 2.0 6.0 0.00 0.45 0.00 92 1012.4
20260507050615 77 223 2.0 10.0 0.00 0.45 0.00 92 1012.3
20260507050115 77 262 2.0 10.0 0.00 0.45 0.00 92 1012.3
20260507045614 77 65 2.0 5.0 0.00 0.45 0.45 92 1012.3
20260507045114 77 165 2.0 5.0 0.00 0.45 0.45 92 1012.2
20260507044612 77 49 3.0 10.0 0.00 0.45 0.45 92 1012.2
20260507044112 77 158 3.0 10.0 0.00 0.45 0.45 92 1012.6
20260507043842 77 104 2.0 11.0 0.00 0.45 0.45 92 1012.6
20260507043110 77 203 2.0 11.0 0.00 0.45 0.45 92 1012.5
20260507042610 77 345 2.0 8.0 0.00 0.45 0.45 92 1012.4
20260507042110 77 207 3.0 8.0 0.00 0.45 0.45 92 1012.4
20260507041610 77 300 3.0 8.0 0.00 0.45 0.45 92 1012.3
20260507041110 77 80 3.0 9.0 0.00 0.45 0.45 92 1012.0
20260507040610 77 124 3.0 10.0 0.00 0.45 0.45 92 1012.0
20260507040109 77 167 2.0 10.0 0.00 0.45 0.45 92 1012.2
20260507035610 77 229 2.0 8.0 0.00 0.45 0.45 92 1012.4
20260507035342 77 227 2.0 5.0 0.00 0.45 0.45 92 1012.6
20260507034610 77 188 2.0 5.0 0.00 0.45 0.45 92 1012.8
20260507034340 77 109 2.0 7.0 0.00 0.45 0.45 92 1012.7
20260507033610 76 195 2.0 9.0 0.00 0.45 0.45 92 1012.8
20260507033110 76 213 2.0 9.0 0.00 0.45 0.45 92 1012.6
20260507032610 77 174 2.0 6.0 0.00 0.45 0.45 92 1012.5
20260507032110 77 176 2.0 7.0 0.00 0.45 0.45 92 1012.7
20260507031610 76 86 2.0 7.0 0.00 0.45 0.45 92 1012.7
20260507031341 76 207 1.0 4.0 0.00 0.45 0.45 92 1012.9
20260507030610 76 202 2.0 7.0 0.00 0.45 0.45 93 1012.9
20260507030110 76 226 2.0 10.0 0.00 0.45 0.45 93 1012.9
20260507025610 76 278 2.0 10.0 0.00 0.45 0.45 93 1012.8
20260507025107 76 234 2.0 8.0 0.00 0.45 0.45 93 1012.7
20260507024608 76 184 2.0 8.0 0.00 0.45 0.45 93 1012.5
20260507024108 76 209 2.0 8.0 0.00 0.45 0.45 93 1012.6
20260507023608 76 213 2.0 8.0 0.00 0.45 0.45 93 1012.5
20260507023339 76 79 2.0 8.0 0.00 0.45 0.45 93 1012.2
20260507022608 76 185 2.0 8.0 0.00 0.45 0.45 92 1012.0
20260507022109 76 179 2.0 9.0 0.00 0.45 0.45 92 1011.9
20260507021608 76 228 2.0 9.0 0.00 0.45 0.45 92 1012.0
20260507021338 76 245 2.0 9.0 0.00 0.45 0.45 92 1012.2
20260507020839 76 110 2.0 9.0 0.00 0.45 0.45 92 1011.9
20260507020108 76 215 3.0 7.0 0.00 0.45 0.45 92 1011.8
20260507015608 76 223 3.0 13.0 0.00 0.45 0.45 92 1011.6
20260507015108 76 218 3.0 13.0 0.00 0.45 0.45 92 1011.5
20260507014608 76 137 3.0 10.0 0.00 0.45 0.45 92 1011.6
20260507014108 76 226 2.0 8.0 0.00 0.45 0.45 92 1011.6
20260507013607 76 198 2.0 8.0 0.00 0.45 0.45 92 1011.8
20260507013107 76 115 2.0 7.0 0.00 0.45 0.45 92 1011.8
20260507012608 76 210 3.0 8.0 0.00 0.45 0.45 92 1011.8
20260507012108 76 200 2.0 8.0 0.00 0.45 0.45 92 1011.8
20260507011608 76 207 2.0 9.0 0.00 0.45 0.45 92 1011.8
20260507011338 76 245 2.0 9.0 0.00 0.45 0.45 92 1011.9
20260507010607 76 216 2.0 6.0 0.00 0.45 0.45 92 1012.0
20260507010108 76 213 2.0 8.0 0.00 0.45 0.45 92 1012.2
20260507005608 76 211 2.0 8.0 0.00 0.45 0.45 91 1012.2
20260507005106 76 300 2.0 7.0 0.00 0.45 0.45 91 1012.0
20260507004837 76 219 2.0 7.0 0.00 0.45 0.45 91 1011.7
20260507004106 76 335 2.0 8.0 0.00 0.45 0.45 91 1011.6
20260507003606 76 205 1.0 8.0 0.00 0.45 0.45 91 1011.5
20260507003107 76 229 1.0 6.0 0.00 0.45 0.45 91 1011.7
20260507002606 76 120 2.0 10.0 0.00 0.45 0.45 90 1012.3
20260507002112 76 146 1.0 5.0 0.00 0.45 0.45 90 1012.5
20260507002107 76 113 2.0 10.0 0.00 0.45 0.45 90 1012.4
20260507001105 76 193 1.0 5.0 0.00 0.45 0.45 90 1012.6
20260507000606 76 252 2.0 6.0 0.00 0.45 0.45 90 1012.6
20260507000106 76 274 2.0 6.0 0.00 0.45 0.45 90 1012.3
20260506235605 76 193 1.0 5.0 0.00 0.45 0.45 90 1012.2
20260506235106 76 233 1.0 4.0 0.00 0.45 0.45 90 1011.8
20260506234604 77 214 1.0 3.0 0.00 0.45 0.45 90 1012.0
20260506234335 77 208 1.0 8.0 0.00 0.45 0.45 90 1011.9
20260506233835 77 191 2.0 8.0 0.00 0.45 0.45 89 1012.0
20260506233104 77 229 3.0 9.0 0.00 0.45 0.45 89 1011.8
20260506232836 77 202 2.0 9.0 0.00 0.45 0.45 89 1012.0
20260506232104 77 139 2.0 10.0 0.00 0.45 0.45 89 1011.9
20260506231604 77 229 3.0 10.0 0.00 0.45 0.45 88 1011.9
20260506231102 77 156 3.0 8.0 0.00 0.45 0.45 88 1011.9
20260506230602 77 346 3.0 8.0 0.00 0.45 0.45 88 1012.0
20260506225602 78 195 2.0 8.0 0.00 0.45 0.45 88 1012.0
20260506225331 78 113 1.0 7.0 0.00 0.45 0.45 88 1012.0
20260506224558 78 115 2.0 5.0 0.00 0.45 0.45 88 1012.3
20260506224058 78 103 2.0 5.0 0.00 0.45 0.45 89 1012.3
20260506223556 78 74 2.0 5.0 0.00 0.45 0.45 88 1012.4
20260506223056 78 186 2.0 9.0 0.00 0.45 0.45 89 1012.5
20260506222555 78 170 2.0 9.0 0.00 0.45 0.45 89 1012.7
20260506222056 78 176 1.0 6.0 0.00 0.45 0.45 89 1012.7
20260506221556 78 101 2.0 7.0 0.00 0.45 0.45 89 1012.7
20260506221056 78 213 2.0 7.0 0.00 0.45 0.45 90 1012.7
20260506220553 78 206 1.0 5.0 0.00 0.45 0.45 90 1012.8
20260506220054 78 209 1.0 5.0 0.00 0.45 0.45 90 1012.9
20260506215554 78 232 1.0 5.0 0.00 0.45 0.45 91 1012.9
20260506215053 78 133 1.0 9.0 0.01 0.45 0.45 91 1012.8
20260506214554 78 148 1.0 9.0 0.01 0.45 0.45 91 1012.8
20260506214054 78 182 1.0 5.0 0.01 0.45 0.45 91 1012.8
20260506213551 78 210 1.0 5.0 0.01 0.45 0.45 91 1012.8
20260506213052 78 213 1.0 6.0 0.01 0.45 0.45 92 1012.7
20260506212556 77 177 0.0 4.0 0.01 0.45 0.45 92 1012.8
20260506212552 78 196 1.0 6.0 0.01 0.45 0.45 92 1012.7
20260506211552 77 209 0.0 3.0 0.01 0.45 0.45 92 1013.0
20260506211322 77 210 1.0 2.0 0.01 0.45 0.45 92 1013.0
20260506210550 77 208 1.0 2.0 0.01 0.45 0.45 92 1013.1
20260506210050 77 180 0.0 2.0 0.01 0.45 0.45 92 1013.2
20260506205549 77 232 1.0 2.0 0.01 0.45 0.45 92 1013.2
20260506205050 78 262 1.0 4.0 0.00 0.44 0.44 92 1013.3
20260506204821 78 237 2.0 4.0 0.00 0.44 0.44 93 1013.3
20260506204050 78 225 1.0 4.0 0.00 0.44 0.44 93 1013.3
20260506203550 77 242 0.0 2.0 0.00 0.44 0.44 94 1013.4
20260506203049 77 236 0.0 2.0 0.00 0.44 0.44 94 1013.4
20260506202550 76 205 1.0 5.0 0.01 0.44 0.44 94 1013.5
20260506202322 75 205 2.0 5.0 0.08 0.44 0.44 93 1013.7
20260506201550 75 264 1.0 4.0 0.16 0.44 0.44 93 1013.7
20260506201049 76 257 1.0 3.0 0.22 0.44 0.44 93 1013.7
20260506200548 76 205 1.0 3.0 0.24 0.44 0.44 93 1013.8
20260506200046 76 231 1.0 3.0 0.27 0.44 0.44 93 1013.9
20260506195546 76 262 0.0 3.0 0.32 0.44 0.44 93 1013.8
20260506195044 76 241 0.0 3.0 0.35 0.44 0.44 93 1013.8
20260506194544 76 234 1.0 2.0 0.38 0.44 0.44 93 1014.0
20260506194041 76 236 1.0 3.0 0.39 0.44 0.44 93 1014.1
20260506193542 76 233 1.0 3.0 0.39 0.44 0.44 93 1014.2
20260506193311 76 74 0.0 3.0 0.39 0.44 0.44 92 1013.9
20260506192540 76 230 0.0 2.0 0.38 0.43 0.44 92 1014.2
20260506192040 76 229 0.0 2.0 0.30 0.33 0.36 92 1014.4
20260506191539 76 209 0.0 2.0 0.26 0.28 0.28 92 1014.5
20260506191038 76 209 0.0 2.0 0.20 0.22 0.22 92 1014.5
20260506190538 77 190 0.0 1.0 0.19 0.20 0.20 91 1014.5
20260506190035 77 120 0.0 1.0 0.16 0.17 0.17 91 1014.6
20260506185807 77 86 0.0 2.0 0.11 0.12 0.12 91 1014.5
20260506185035 77 203 1.0 6.0 0.08 0.09 0.09 91 1014.7
20260506184534 77 165 1.0 6.0 0.05 0.06 0.06 90 1014.8
20260506184033 77 212 1.0 3.0 0.04 0.05 0.05 90 1014.8
20260506183534 77 198 0.0 1.0 0.04 0.05 0.05 90 1014.9
20260506183034 77 299 0.0 2.0 0.04 0.05 0.05 90 1014.9
20260506182805 78 299 0.0 2.0 0.04 0.05 0.05 89 1015.0
20260506182306 78 153 1.0 3.0 0.02 0.03 0.04 89 1015.0
20260506181534 78 165 1.0 3.0 0.01 0.02 0.02 88 1015.1
20260506181032 78 221 1.0 3.0 0.01 0.02 0.02 87 1015.1
20260506180531 78 77 1.0 5.0 0.00 0.01 0.01 86 1015.2
20260506180030 78 269 1.0 5.0 0.00 0.01 0.01 86 1015.1
20260506175530 79 201 1.0 4.0 0.00 0.01 0.01 86 1015.2
20260506175029 78 229 1.0 3.0 0.00 0.01 0.01 87 1015.3
20260506174530 78 205 1.0 5.0 0.00 0.01 0.01 87 1015.3
20260506174027 78 162 1.0 5.0 0.00 0.01 0.01 87 1015.3
20260506173528 78 212 1.0 3.0 0.00 0.01 0.01 87 1015.4
20260506173026 78 208 2.0 4.0 0.00 0.01 0.01 86 1015.4
20260506172526 78 148 2.0 8.0 0.00 0.01 0.01 86 1015.4
20260506172024 78 150 2.0 10.0 0.00 0.01 0.01 86 1015.5
20260506171523 79 199 1.0 6.0 0.00 0.01 0.01 85 1015.5
20260506171022 79 206 2.0 6.0 0.00 0.01 0.01 86 1015.5
20260506170521 78 197 1.0 4.0 0.00 0.01 0.01 87 1015.5
20260506170021 78 175 0.0 4.0 0.00 0.01 0.01 88 1015.5
20260506165522 78 205 0.0 2.0 0.00 0.01 0.01 88 1015.4
20260506165022 78 224 0.0 3.0 0.00 0.01 0.01 88 1015.5
20260506164750 77 169 0.0 3.0 0.00 0.01 0.01 88 1015.4
20260506164252 77 177 1.0 3.0 0.00 0.01 0.01 88 1015.4
20260506163751 77 202 1.0 4.0 0.00 0.01 0.01 88 1015.5
20260506163020 77 175 1.0 4.0 0.00 0.01 0.01 88 1015.5
20260506162519 77 134 0.0 2.0 0.00 0.01 0.01 88 1015.5
20260506162019 77 163 0.0 3.0 0.00 0.01 0.01 88 1015.6
20260506161520 77 148 0.0 3.0 0.00 0.01 0.01 88 1015.5
20260506161020 77 204 0.0 2.0 0.00 0.01 0.01 88 1015.4
20260506160520 77 217 0.0 2.0 0.00 0.01 0.01 88 1015.5
20260506160251 77 159 1.0 2.0 0.00 0.01 0.01 88 1015.5
20260506155519 77 202 1.0 3.0 0.01 0.01 0.01 89 1015.4
20260506155020 77 260 1.0 3.0 0.01 0.01 0.01 89 1015.4
20260506154519 77 205 1.0 3.0 0.01 0.01 0.01 88 1015.4
20260506154020 77 207 1.0 3.0 0.01 0.01 0.01 89 1015.4
20260506153751 77 194 1.0 4.0 0.01 0.01 0.01 89 1015.4
20260506153020 77 208 1.0 4.0 0.01 0.01 0.01 89 1015.5
20260506152520 77 191 0.0 3.0 0.01 0.01 0.01 90 1015.4
20260506152020 76 167 0.0 2.0 0.01 0.01 0.01 91 1015.3
20260506151519 76 167 0.0 4.0 0.01 0.01 0.01 91 1015.2
20260506151020 76 207 0.0 4.0 0.01 0.01 0.01 91 1015.3
20260506150519 76 203 0.0 2.0 0.01 0.01 0.01 91 1015.2
20260506150019 75 203 1.0 2.0 0.01 0.01 0.01 91 1015.1
20260506145520 75 207 0.0 2.0 0.00 0.00 0.00 91 1015.1
20260506145019 75 110 0.0 2.0 0.00 0.00 0.00 91 1015.0
20260506144520 75 86 0.0 2.0 0.00 0.00 0.00 91 1014.9
20260506144019 75 198 0.0 2.0 0.00 0.00 0.00 91 1014.9
20260506143519 75 203 0.0 2.0 0.00 0.00 0.00 90 1014.9
20260506143020 75 118 0.0 2.0 0.00 0.00 0.00 90 1014.9
20260506142520 75 293 0.0 1.0 0.00 0.00 0.00 90 1015.0
20260506142250 75 293 0.0 1.0 0.00 0.00 0.00 89 1014.9
20260506141752 75 192 0.0 3.0 0.00 0.00 0.00 89 1014.8
20260506141020 75 195 0.0 3.0 0.00 0.00 0.00 89 1014.8
20260506140519 75 155 0.0 3.0 0.00 0.00 0.00 89 1014.9
20260506140020 75 205 0.0 3.0 0.00 0.00 0.00 89 1014.8
20260506135520 75 127 0.0 3.0 0.00 0.00 0.00 89 1014.7
20260506135019 75 197 0.0 2.0 0.00 0.00 0.00 90 1014.6
20260506134750 75 200 0.0 3.0 0.00 0.00 0.00 90 1014.6
20260506134019 75 122 1.0 3.0 0.00 0.00 0.00 90 1014.6
20260506133520 75 214 1.0 3.0 0.00 0.00 0.00 90 1014.6
20260506133020 75 139 1.0 4.0 0.00 0.00 0.00 91 1014.4
20260506132519 74 82 1.0 6.0 0.00 0.00 0.00 91 1014.3
20260506132251 74 223 1.0 6.0 0.00 0.00 0.00 91 1014.3
20260506131519 74 204 0.0 5.0 0.00 0.00 0.00 92 1014.3
20260506131019 74 210 1.0 5.0 0.00 0.00 0.00 92 1014.3
20260506130520 74 209 1.0 5.0 0.00 0.00 0.00 92 1014.3
20260506130251 74 216 0.0 2.0 0.00 0.00 0.00 92 1014.3
20260506125519 73 234 1.0 3.0 0.00 0.00 0.00 93 1014.2
20260506125020 73 185 1.0 3.0 0.00 0.00 0.00 93 1014.0
20260506124519 73 231 0.0 2.0 0.00 0.00 0.00 93 1014.0
20260506124019 73 226 0.0 2.0 0.00 0.00 0.00 93 1014.0